You are listening to:
KSWF Tower - Newburgh, New York, United States

KSWF 282045Z 25007KT 10SM OVC030 12/11 A2995

If stream doesn't start automatically press the play button
If stream stops then reload player then press play